weather.gov     
National Weather Service

Other Surface Observations
NWS Homepage
This page is being discontinued on March 12, 2014.
The same data is available at this site. Please update your bookmarks.
Thank you, and we apologize for the inconvenience.
Please send an email to SR-SRH.Webmaster@noaa.gov with any concerns.


Current Version
Previous Version:    01  02  03  04  05  06  07  08  09  10  11  12  13  14  15  16  17  18  19  20  21  22  23  24  25  26  27  28  29  30  
   31  32  33  34  35  36  37  38  39  40  41  42  43  44  45  46  47  48  49  50  51  52  53  54  55  56  57  58  59  60  
[Printable]
441
SXUS52 KCHS 250825
OSOCHS

MARINE OBSERVATIONS
NATIONAL WEATHER SERVICE CHARLESTON SC
400 AM EDT SAT OCT 25 2014

...DOWNTOWN CHARLESTON AND HARBOR...

CITY           SKY/WX    TMP DP  RH WIND       PRES   REMARKS
WATERFRONT PRK   N/A     61 N/A N/A CALM        N/A
FORT JOHNSON   NOT AVBL

...LAKE MOULTRIE...

CITY           SKY/WX    TMP DP  RH WIND       PRES   REMARKS
PINOPOLIS      NOT AVBL

...LAKE AND SUPPLEMENTAL COASTAL OBSERVATIONS...

STATION/POSITION TIME  TEMP    WIND        PRES    WAVE   SWELL
                       AIR SEA DIR/SP/G            HT/PER HT/PER/DIR
                 (UTC) (F)     (DEG/KT/KT) (MB)    (FT/S) (FT/S/D)
FORT PULASKI     0800   56     300/  7/  8 1015.6F
SAPELO ISLAND    NOT AVBL
UPR LAKE MARION  NOT AVBL
WINYAH BAY       0800   54     310/  4     1015.0S
LAKE MURRAY      0700   52      CALM  /  2 1015.2F
ACE BASIN NERRS  0800   51        CALM     1015.0S


...C-MAN AND BUOY OBSERVATIONS...

STATION/POSITION TIME  TEMP    WIND        PRES    WAVE   SWELL
                       AIR SEA DIR/SP/G            HT/PER HT/PER/DIR
                 (UTC) (F)     (DEG/KT/KT) (MB)    (FT/S) (FT/S/D)
BUOY 41004       0800   69 78  360/  6/ 10 1014.4F   3/10   3/10
BUOY 41008       0800   70 74   20/  6/  8 1015.2F   2/10   2/ 90/10
FOLLY BEACH CMAN 0800   59     350/  4/  4 1015.4F
CAPERS NS BUOY   NOT AVBL
FRIPP NS BUOY    NOT AVBL
5E ST. MARYS GA  0800      75                N/A     2/10   2/ 90/11
FRYING PAN BUOY  0800   67 73  340/  4/  6 1015.4F   2/ 9   2/100/ 9
BUOY 41025       0800   65     330/ 12/ 14 1014.0F   3/ 9   2/ 30/ 9
CAPE LOOKOUT NC  0800   61     320/  8/  9 1014.1F
BUOY 41002       0655   70 77  360/  6/ 12 1013.8    4/ 9   3/ 20/ 9
BUOY 41010       0800   75 82   30/ 12/ 14 1012.7F   3/ 3   2/ 40/ 9
BUOY 41012       NOT AVBL
ST AUGUSTINE FL  0800   63     320/  8/  9 1015.1F


$$




U.S. Dept. of Commerce
NOAA National Weather Service
1325 East West Highway
Silver Spring, MD 20910
E-mail: w-nws.webmaster@noaa.gov
Page last modified: May 16, 2007
NATIONAL WEATHER SERVICE: for Safety, for Work, for Fun - FOR LIFE